STARLINK-11554, 62833

Orbit data source: Space-Track

STARLINK-11554, 62833 is a payload satellite owned by SpaceX/Seattle (US) in LEO that was launched on Mon, 27 Jan 2025 UTC via an FALCON 9 launch vehicle from the Air Force Eastern Test Range (AFETR). Payload-class satellites include a variety of spacecraft equipped with specific instruments for various scientific and technological missions. These include communications satellites like Starlink; space stations such as the ISS; scientific satellites like the Hubble; Earth observation satellites from companies like Planet Labs, Umbra, and HawkEye 360; GPS; miniature CubeSats for education and research; and military/defense satellites.

Loading next visibility...
Identifier
62833, 2025-019E
Orbit
LEO
Country
Flag of USUS
Related business
Manufacturer
SpaceX/Seattle
Mission
Operational Commercial Communications
Bus & Motor
STARLINK V2MD, Unknown motor
Mass
960 kg wet, ~910 kg dry
Launch date (UTC)
2025-01-27 (1 year ago)
Launch vehicle
FALCON 9
Launch site
Air Force Eastern Test Range (AFETR)
Object type
Payload
Rocket body
Debris
Shape & HBR
Box + 2 Pan, 18.1 m
Radar Cross Section
36.964 m², Large (>1 m²)

Expand to show TLE details & history
Last TLE update: 1 day ago

TLE from 1 day ago
0 STARLINK-11554
1 62833U 25019E   26033.69558440  .00105292  00000-0  81361-3 0  9995
2 62833  42.9969 157.2200 0002384  11.4539 348.6383 15.70841143 58372
Epoch: 2026-02-02T16:41Z
TLE epoch observation values (Epoch: 2026-02-02T16:41:38.492Z)
Latitude
0.00003°
Longitude
133.92248°
Altitude
354.689 km
Speed
7.699 km/s
True Right ascension
10h 28m 52s
True Declination
0° 00' 00"
Sunlit
Object was in full shadow at epoch
Visualization orbit readout
Latitude
Unknown
Longitude
Unknown
Altitude
Unknown
Speed
Unknown
Apparent Right ascension
Unknown
Apparent Declination
Unknown
Sunlit
N/A
Visualization observer readout
Local Sidereal Time
18:56:44
Azimuth
Unknown
Elevation
Unknown
Doppler factor
Unknown
Orbital elements
Apogee altitude
360.08 km
Perigee altitude
356.868 km
Semi-major axis
6,736.611 km
Eccentricity
0.00024
Inclination
42.9969°
RAAN
157.22°
Arg. of periapsis
11.4539°
True anomaly
348.63292°
Mean anomaly
348.6383°
Eccentric anomaly
348.63561°
Mean motion
3.92537 °/min
Orbital period
91.71 mins
BSTAR
0.00081361
Loading maneuver chart data...
Computing Atmospheric mass density...
Loading historical data...
Loading historical data...
Loading historical data...
Loading historical data...
Loading historical data...
Loading historical data...
Loading historical data...

Documentation

Showing up to 5 results
|